Location: Carabito
(9.8355°N, 67.9249°W)
Time: 00:30:33
(UTC+00:00)

RESURS DK-1 - Pass Details

Date: 23 May 2024
Orbit: 542 x 547 km, 69.9° (Epoch: 12 June)

Event Time Altitude Azimuth Distance (km) Brightness Sun altitude
Rises 08:37:20 0° 337° (NNW) 2,701 5.9 -21.7°
Reaches altitude 10° 08:39:32 10° 334° (NNW) 1,810 5.0 -21.2°
Maximum altitude 08:43:32 61° 254° (WSW) 619 2.2 -20.3°
Enters shadow 08:44:03 55° 215° (SW) 659 2.3 -20.2°
